| time (UTC) | temp F | wind direction | speed MPH | gust MPH | rain 1hr in | rain 24hr in | rain mn in | humidity % | barometer mb |
| 20260504050120 | 62 | 0 | 1.0 | 7.0 | 0.00 | 0.00 | 0.00 | 76 | 1015.5 |
| 20260504044552 | 62 | 251 | 1.0 | 7.0 | 0.00 | 0.00 | 0.00 | 76 | 1015.5 |
| 20260504043059 | 62 | 252 | 2.0 | 6.0 | 0.00 | 0.00 | 0.00 | 75 | 1015.2 |
| 20260504041552 | 62 | 252 | 2.0 | 7.0 | 0.00 | 0.00 | 0.00 | 74 | 1015.2 |
| 20260504040103 | 62 | 254 | 2.0 | 6.0 | 0.00 | 0.00 | 0.00 | 73 | 1015.3 |
| 20260504034557 | 62 | 251 | 2.0 | 6.0 | 0.00 | 0.00 | 0.00 | 73 | 1015.3 |
| 20260504033051 | 62 | 241 | 3.0 | 7.0 | 0.00 | 0.00 | 0.00 | 73 | 1015.2 |
| 20260504031617 | 62 | 247 | 3.0 | 7.0 | 0.00 | 0.00 | 0.00 | 72 | 1015.0 |
| 20260504030058 | 62 | 0 | 2.0 | 7.0 | 0.00 | 0.00 | 0.00 | 72 | 1014.6 |
| 20260504024550 | 62 | 276 | 2.0 | 8.0 | 0.00 | 0.00 | 0.00 | 72 | 1014.4 |
| 20260504023050 | 62 | 247 | 2.0 | 11.0 | 0.00 | 0.00 | 0.00 | 72 | 1014.3 |
| 20260504021554 | 62 | 270 | 4.0 | 12.0 | 0.00 | 0.00 | 0.00 | 72 | 1014.5 |
| 20260504020051 | 62 | 296 | 4.0 | 10.0 | 0.00 | 0.00 | 0.00 | 72 | 1014.4 |
| 20260504014553 | 63 | 257 | 5.0 | 11.0 | 0.00 | 0.00 | 0.00 | 71 | 1014.3 |
| 20260504013054 | 63 | 360 | 6.0 | 12.0 | 0.00 | 0.00 | 0.00 | 70 | 1014.3 |
| 20260504011556 | 63 | 244 | 5.0 | 12.0 | 0.00 | 0.00 | 0.00 | 70 | 1013.9 |
| 20260504010058 | 63 | 257 | 5.0 | 13.0 | 0.00 | 0.00 | 0.00 | 69 | 1013.9 |
| 20260504004556 | 63 | 229 | 7.0 | 16.0 | 0.00 | 0.00 | 0.00 | 70 | 1013.8 |
| 20260504003051 | 63 | 255 | 9.0 | 13.0 | 0.00 | 0.00 | 0.00 | 68 | 1013.8 |
| 20260504001608 | 64 | 268 | 7.0 | 14.0 | 0.00 | 0.00 | 0.00 | 66 | 1013.8 |
| 20260504000055 | 64 | 259 | 6.0 | 13.0 | 0.00 | 0.00 | 0.00 | 67 | 1013.6 |
| 20260503234553 | 65 | 283 | 4.0 | 12.0 | 0.00 | 0.00 | 0.00 | 63 | 1013.5 |
| 20260503233055 | 65 | 360 | 5.0 | 14.0 | 0.00 | 0.00 | 0.00 | 64 | 1013.3 |
| 20260503231554 | 65 | 237 | 6.0 | 14.0 | 0.00 | 0.00 | 0.00 | 63 | 1013.5 |
| 20260503230056 | 67 | 245 | 4.0 | 14.0 | 0.00 | 0.00 | 0.00 | 61 | 1013.9 |
| 20260503224551 | 67 | 231 | 6.0 | 13.0 | 0.00 | 0.00 | 0.00 | 61 | 1013.8 |
| 20260503223057 | 67 | 296 | 7.0 | 13.0 | 0.00 | 0.00 | 0.00 | 60 | 1013.8 |
| 20260503221555 | 68 | 256 | 6.0 | 12.0 | 0.00 | 0.00 | 0.00 | 58 | 1013.9 |
| 20260503214555 | 68 | 360 | 7.0 | 12.0 | 0.00 | 0.00 | 0.00 | 58 | 1014.1 |
| 20260503213123 | 68 | 259 | 5.0 | 13.0 | 0.00 | 0.00 | 0.00 | 58 | 1014.1 |
| 20260503211617 | 67 | 290 | 5.0 | 13.0 | 0.00 | 0.00 | 0.00 | 59 | 1014.1 |
| 20260503210052 | 68 | 229 | 5.0 | 18.0 | 0.00 | 0.00 | 0.00 | 64 | 1014.3 |
| 20260503204606 | 67 | 254 | 7.0 | 18.0 | 0.00 | 0.00 | 0.00 | 66 | 1014.4 |
| 20260503203050 | 66 | 242 | 7.0 | 15.0 | 0.00 | 0.00 | 0.00 | 66 | 1014.5 |
| 20260503201552 | 66 | 360 | 7.0 | 13.0 | 0.00 | 0.00 | 0.00 | 68 | 1014.8 |
| 20260503200052 | 65 | 292 | 6.0 | 15.0 | 0.00 | 0.00 | 0.00 | 68 | 1014.9 |
| 20260503194551 | 66 | 250 | 7.0 | 13.0 | 0.00 | 0.00 | 0.00 | 67 | 1014.8 |
| 20260503193056 | 66 | 257 | 7.0 | 14.0 | 0.00 | 0.00 | 0.00 | 67 | 1015.1 |
| 20260503191602 | 66 | 229 | 8.0 | 15.0 | 0.00 | 0.00 | 0.00 | 66 | 1015.0 |
| 20260503190056 | 66 | 360 | 5.0 | 14.0 | 0.00 | 0.00 | 0.00 | 67 | 1015.1 |
| 20260503184607 | 64 | 270 | 8.0 | 14.0 | 0.00 | 0.00 | 0.00 | 70 | 1015.1 |
| 20260503183103 | 64 | 298 | 8.0 | 14.0 | 0.00 | 0.00 | 0.00 | 70 | 1015.1 |
| 20260503181552 | 65 | 257 | 5.0 | 12.0 | 0.00 | 0.00 | 0.00 | 70 | 1015.1 |
| 20260503180053 | 64 | 248 | 7.0 | 15.0 | 0.00 | 0.00 | 0.00 | 72 | 1015.2 |
| 20260503174609 | 65 | 244 | 4.0 | 12.0 | 0.00 | 0.00 | 0.00 | 73 | 1015.2 |
| 20260503173114 | 65 | 246 | 6.0 | 12.0 | 0.00 | 0.00 | 0.00 | 74 | 1015.1 |
| 20260503171550 | 65 | 288 | 6.0 | 13.0 | 0.00 | 0.00 | 0.00 | 75 | 1015.1 |
| 20260503100105 | 61 | 252 | 2.0 | 8.0 | 0.00 | 0.00 | 0.00 | 81 | 1012.9 |
| 20260503081558 | 61 | 196 | 1.0 | 4.0 | 0.00 | 0.00 | 0.00 | 83 | 1013.7 |